This is the latest recevied weather packets stored in our database for station/object PU5FJO-13. If no packets are shown the sender has not sent any weather packets the latest 10 day(s).
| Time | Temp. | Humidity | Pressure | Rain* | Wind** | Luminosity | Snow |
|---|---|---|---|---|---|---|---|
| 1777379166 | 17.78° C | 54% | 1021.1 hPa | - | - | - | - |
| 1777378566 | 17.78° C | 56% | 1021.2 hPa | - | - | - | - |
| 1777377966 | 17.22° C | 56% | 1021.2 hPa | - | - | - | - |
| 1777377366 | 17.22° C | 56% | 1021.1 hPa | - | - | - | - |
| 1777376766 | 16.11° C | 59% | 1021 hPa | - | - | - | - |
| 1777376166 | 15.56° C | 59% | 1021 hPa | - | - | - | - |
| 1777375566 | 15° C | 60% | 1020.9 hPa | - | - | - | - |
| 1777374966 | 14.44° C | 63% | 1020.7 hPa | - | - | - | - |
| 1777374366 | 13.89° C | 64% | 1020.6 hPa | - | - | - | - |
| 1777373766 | 13.33° C | 64% | 1020.5 hPa | - | - | - | - |
| 1777373166 | 13.33° C | 66% | 1020.5 hPa | - | - | - | - |
| 1777372566 | 13.33° C | 66% | 1020.4 hPa | - | - | - | - |
| 1777371966 | 12.78° C | 66% | 1020.4 hPa | - | - | - | - |
| 1777371366 | 12.78° C | 67% | 1020.2 hPa | - | - | - | - |
| 1777370766 | 13.33° C | 68% | 1020.1 hPa | - | - | - | - |
| 1777370166 | 13.33° C | 68% | 1020 hPa | - | - | - | - |
| 1777369566 | 13.33° C | 67% | 1020.1 hPa | - | - | - | - |
| 1777368966 | 13.33° C | 67% | 1020 hPa | - | - | - | - |
| 1777368366 | 13.33° C | 68% | 1020 hPa | - | - | - | - |
| 1777367766 | 13.33° C | 66% | 1019.8 hPa | - | - | - | - |
| 1777367166 | 13.33° C | 67% | 1019.5 hPa | - | - | - | - |
| 1777366566 | 13.33° C | 68% | 1019.5 hPa | - | - | - | - |
| 1777365966 | 13.33° C | 68% | 1019.2 hPa | - | - | - | - |
| 1777365366 | 13.33° C | 69% | 1019.3 hPa | - | - | - | - |
| 1777364766 | 12.78° C | 70% | 1019 hPa | - | - | - | - |
* Rain since midnight (hover to see other rain measurements)
** Current wind speed in m/s (hover to see current wind gust speed)